OBJECT AE, 64556

Orbit data source: Space-Track

You're viewing an uncataloged RSO

Recently launched and/or uncataloged RSOs may have evolving metadata. Metadata may include the following, but is not limited to: Owner, Manufacturer, Bus, Motor, and Mission.

OBJECT AE, 64556 is a satellite in SSO that was launched on Mon, 23 Jun 2025 UTC via an FALCON 9 launch vehicle from the Air Force Western Test Range (AFWTR). Unknown objects in Earth's orbit typically refer to objects detected orbiting the Earth but have not yet been identified or cataloged. These objects could be anything from previously untracked satellites, spent rocket stages, debris from satellite collisions, or even natural meteoroids temporarily captured by Earth's gravity.

Loading next visibility...
Identifier
64556, 2025-135AE
Orbit
SSO
Country
Flag of TBDTBD
Related business
None
Manufacturer
Unknown
Mission
Operational Commercial Imaging
Bus & Motor
Unknown
Mass
Unknown
Launch date (UTC)
2025-06-23 (1 year ago)
Launch vehicle
FALCON 9
Launch site
Air Force Western Test Range (AFWTR)
Object type
Unknown
Shape & HBR
Box, 0.2 m
Radar Cross Section
0.080 m², Medium (>0.1 m² and < 1m²)

Expand to show TLE details & history
Last TLE update: 5 hours ago

TLE from 5 hours ago
0 OBJECT AE
1 64556U 25135AE  26251.57062477  .00008195  00000-0  31190-3 0  9996
2 64556  97.4812   8.2595 0002857 110.3942 249.7604 15.27007992 67669
Epoch: 2026-09-08T13:41Z
TLE epoch observation values (Epoch: 2026-09-08T13:41:41.980Z)
Latitude
0.00002°
Longitude
175.19944°
Altitude
488.539 km
Speed
7.62 km/s
True Right ascension
00h 33m 02s
True Declination
0° 00' 00"
Sunlit
Object was in full shadow at epoch
Visualization orbit readout
Latitude
Unknown
Longitude
Unknown
Altitude
Unknown
Speed
Unknown
Apparent Right ascension
Unknown
Apparent Declination
Unknown
Sunlit
N/A
Visualization observer readout
Local Sidereal Time
10:38:05
Azimuth
Unknown
Elevation
Unknown
Doppler factor
Unknown
Orbital elements
Apogee altitude
483.682 km
Perigee altitude
479.762 km
Semi-major axis
6,859.859 km
Eccentricity
0.00029
Inclination
97.4812°
RAAN
8.2595°
Arg. of periapsis
110.3942°
True anomaly
249.72969°
Mean anomaly
249.7604°
Eccentric anomaly
249.74504°
Mean motion
3.82006 °/min
Orbital period
94.24 mins
BSTAR
0.0003119
Loading maneuver chart data...
Computing Atmospheric mass density...
Loading historical data...
Loading historical data...
Loading historical data...
Loading historical data...
Loading historical data...
Loading historical data...
Loading historical data...

Documentation

Showing up to 5 results
|